Location: Black Swamp Observatory
(41.3920°N, 84.1250°W)
Time: 09:28:15
(UTC-04:00)

ISS - Visible Passes

Search period start: 29 September 2023 00:00
Search period end: 09 October 2023 00:00
Orbit: 413 x 421 km, 51.6° (Epoch: 29 September)

Date Brightness Start Highest point End Pass type
(mag) Time Alt. Az. Time Alt. Az. Time Alt. Az.
29 Sep -3.5 21:05:15 10° NW 21:08:16 61° N 21:08:16 61° N visible
30 Sep -3.1 20:17:00 10° NW 20:20:11 41° NNE 20:21:58 22° E visible
30 Sep -0.7 21:54:01 10° WNW 21:54:53 15° W 21:54:53 15° W visible
01 Oct -2.9 21:05:20 10° WNW 21:08:30 42° SW 21:08:37 42° SW visible
02 Oct -3.7 20:16:48 10° WNW 20:20:07 77° SW 20:22:26 18° SE visible
03 Oct -1.2 21:05:57 10° W 21:08:01 15° SW 21:09:15 13° SSW visible
04 Oct -1.8 20:16:47 10° WNW 20:19:38 26° SW 20:22:28 10° SSE visible
